Year,Month,Day,Hour,Minute,Value (Times are PST for temperature in C)
2015,06,22,00,00,15.80
2015,06,22,00,01,15.80
2015,06,22,00,02,15.80
2015,06,22,00,03,15.80
2015,06,22,00,04,15.80
2015,06,22,00,05,15.80
2015,06,22,00,06,15.80
2015,06,22,00,07,15.80
2015,06,22,00,08,15.90
2015,06,22,00,09,15.90
2015,06,22,00,10,15.90
2015,06,22,00,11,15.90
2015,06,22,00,12,16.00
2015,06,22,00,13,16.00
2015,06,22,00,14,16.10
2015,06,22,00,15,16.10
2015,06,22,00,16,16.10
2015,06,22,00,17,16.10
2015,06,22,00,18,16.00
2015,06,22,00,19,15.90
2015,06,22,00,20,15.90
2015,06,22,00,21,15.90
2015,06,22,00,22,15.90
2015,06,22,00,23,15.90
2015,06,22,00,24,15.90
2015,06,22,00,25,15.90
2015,06,22,00,26,15.90
2015,06,22,00,27,15.90
2015,06,22,00,28,15.90
2015,06,22,00,29,15.90
2015,06,22,00,30,15.90
2015,06,22,00,31,15.90
2015,06,22,00,32,15.90
2015,06,22,00,33,15.90
2015,06,22,00,34,16.00
2015,06,22,00,35,16.10
2015,06,22,00,36,16.10
2015,06,22,00,37,16.10
2015,06,22,00,38,16.10
2015,06,22,00,39,16.00
2015,06,22,00,40,16.00
2015,06,22,00,41,16.00
2015,06,22,00,42,15.90
2015,06,22,00,43,15.90
2015,06,22,00,44,15.80
2015,06,22,00,45,15.80
2015,06,22,00,46,15.80
2015,06,22,00,47,15.70
2015,06,22,00,48,15.70
2015,06,22,00,49,15.70
2015,06,22,00,50,15.70
2015,06,22,00,51,15.70
2015,06,22,00,52,15.70
2015,06,22,00,53,15.70
2015,06,22,00,54,15.70
2015,06,22,00,55,15.70
2015,06,22,00,56,15.70
2015,06,22,00,57,15.70
2015,06,22,00,58,15.60
2015,06,22,00,59,15.60
2015,06,22,01,00,15.60
2015,06,22,01,01,15.60
2015,06,22,01,02,15.50
2015,06,22,01,03,15.50
2015,06,22,01,04,15.40
2015,06,22,01,05,15.40
2015,06,22,01,06,15.40
2015,06,22,01,07,15.40
2015,06,22,01,08,15.40
2015,06,22,01,09,15.30
2015,06,22,01,10,15.30
2015,06,22,01,11,15.30
2015,06,22,01,12,15.30
2015,06,22,01,13,15.20
2015,06,22,01,14,15.20
2015,06,22,01,15,15.20
2015,06,22,01,16,15.20
2015,06,22,01,17,15.20
2015,06,22,01,18,15.20
2015,06,22,01,19,15.20
2015,06,22,01,20,15.20
2015,06,22,01,21,15.10
2015,06,22,01,22,15.10
2015,06,22,01,23,15.10
2015,06,22,01,24,15.10
2015,06,22,01,25,15.10
2015,06,22,01,26,15.10
2015,06,22,01,27,15.10
2015,06,22,01,28,15.10
2015,06,22,01,29,15.10
2015,06,22,01,30,15.20
2015,06,22,01,31,15.20
2015,06,22,01,32,15.20
2015,06,22,01,33,15.20
2015,06,22,01,34,15.20
2015,06,22,01,35,15.10
2015,06,22,01,36,15.10
2015,06,22,01,37,15.10
2015,06,22,01,38,15.00
2015,06,22,01,39,15.00
2015,06,22,01,40,15.00
2015,06,22,01,41,14.90
2015,06,22,01,42,14.90
2015,06,22,01,43,14.90
2015,06,22,01,44,14.90
2015,06,22,01,45,14.90
2015,06,22,01,46,14.90
2015,06,22,01,47,14.90
2015,06,22,01,48,14.80
2015,06,22,01,49,14.80
2015,06,22,01,50,14.80
2015,06,22,01,51,14.80
2015,06,22,01,52,14.80
2015,06,22,01,53,14.80
2015,06,22,01,54,14.80
2015,06,22,01,55,14.90
2015,06,22,01,56,14.90
2015,06,22,01,57,15.00
2015,06,22,01,58,15.00
2015,06,22,01,59,15.00
2015,06,22,02,00,15.00
2015,06,22,02,01,15.00
2015,06,22,02,02,15.00
2015,06,22,02,03,15.00
2015,06,22,02,04,14.90
2015,06,22,02,05,14.90
2015,06,22,02,06,15.00
2015,06,22,02,07,15.00
2015,06,22,02,08,15.10
2015,06,22,02,09,15.10
2015,06,22,02,10,15.10
2015,06,22,02,11,15.10
2015,06,22,02,12,15.10
2015,06,22,02,13,15.10
2015,06,22,02,14,15.10
2015,06,22,02,15,15.10
2015,06,22,02,16,15.10
2015,06,22,02,17,15.10
2015,06,22,02,18,15.10
2015,06,22,02,19,15.10
2015,06,22,02,20,15.00
2015,06,22,02,21,15.00
2015,06,22,02,22,14.90
2015,06,22,02,23,14.90
2015,06,22,02,24,14.90
2015,06,22,02,25,14.80
2015,06,22,02,26,14.80
2015,06,22,02,27,14.80
2015,06,22,02,28,14.70
2015,06,22,02,29,14.70
2015,06,22,02,30,14.70
2015,06,22,02,31,14.70
2015,06,22,02,32,14.70
2015,06,22,02,33,14.70
2015,06,22,02,34,14.70
2015,06,22,02,35,14.70
2015,06,22,02,36,14.70
2015,06,22,02,37,14.70
2015,06,22,02,38,14.70
2015,06,22,02,39,14.60
2015,06,22,02,40,14.60
2015,06,22,02,41,14.50
2015,06,22,02,42,14.50
2015,06,22,02,43,14.40
2015,06,22,02,44,14.30
2015,06,22,02,45,14.30
2015,06,22,02,46,14.30
2015,06,22,02,47,14.20
2015,06,22,02,48,14.20
2015,06,22,02,49,14.20
2015,06,22,02,50,14.10
2015,06,22,02,51,14.10
2015,06,22,02,52,14.00
2015,06,22,02,53,14.00
2015,06,22,02,54,13.90
2015,06,22,02,55,13.90
2015,06,22,02,56,13.90
2015,06,22,02,57,13.90
2015,06,22,02,58,13.90
2015,06,22,02,59,14.00
2015,06,22,03,00,13.90
2015,06,22,03,01,13.90
2015,06,22,03,02,13.90
2015,06,22,03,03,13.90
2015,06,22,03,04,13.90
2015,06,22,03,05,13.90
2015,06,22,03,06,13.90
2015,06,22,03,07,13.90
2015,06,22,03,08,13.90
2015,06,22,03,09,13.80
2015,06,22,03,10,13.80
2015,06,22,03,11,13.80
2015,06,22,03,12,13.80
2015,06,22,03,13,13.80
2015,06,22,03,14,13.70
2015,06,22,03,15,13.70
2015,06,22,03,16,13.70
2015,06,22,03,17,13.70
2015,06,22,03,18,13.70
2015,06,22,03,19,13.60
2015,06,22,03,20,13.60
2015,06,22,03,21,13.60
2015,06,22,03,22,13.60
2015,06,22,03,23,13.50
2015,06,22,03,24,13.50
2015,06,22,03,25,13.50
2015,06,22,03,26,13.40
2015,06,22,03,27,13.40
2015,06,22,03,28,13.40
2015,06,22,03,29,13.40
2015,06,22,03,30,13.40
2015,06,22,03,31,13.30
2015,06,22,03,32,13.30
2015,06,22,03,33,13.30
2015,06,22,03,34,13.20
2015,06,22,03,35,13.20
2015,06,22,03,36,13.20
2015,06,22,03,37,13.20
2015,06,22,03,38,13.10
2015,06,22,03,39,13.10
2015,06,22,03,40,13.10
2015,06,22,03,41,13.00
2015,06,22,03,42,13.00
2015,06,22,03,43,12.90
2015,06,22,03,44,12.90
2015,06,22,03,45,12.90
2015,06,22,03,46,12.90
2015,06,22,03,47,12.80
2015,06,22,03,48,12.80
2015,06,22,03,49,12.80
2015,06,22,03,50,12.80
2015,06,22,03,51,12.80
2015,06,22,03,52,12.80
2015,06,22,03,53,12.80
2015,06,22,03,54,12.70
2015,06,22,03,55,12.70
2015,06,22,03,56,12.60
2015,06,22,03,57,12.50
2015,06,22,03,58,12.50
2015,06,22,03,59,12.40
2015,06,22,04,00,12.40
2015,06,22,04,01,12.40
2015,06,22,04,02,12.40
2015,06,22,04,03,12.30
2015,06,22,05,02,12.80
2015,06,22,05,03,12.80
2015,06,22,05,04,12.80
2015,06,22,05,05,12.80
2015,06,22,05,06,12.80
2015,06,22,05,07,12.80
2015,06,22,05,08,12.90
2015,06,22,05,09,12.90
2015,06,22,05,10,12.90
2015,06,22,05,11,12.90
2015,06,22,05,12,12.90
2015,06,22,05,13,12.90
2015,06,22,05,14,12.80
2015,06,22,05,15,12.80
2015,06,22,05,16,12.80
2015,06,22,05,17,12.80
2015,06,22,05,18,12.80
2015,06,22,05,19,12.70
2015,06,22,05,20,12.70
2015,06,22,05,21,12.70
2015,06,22,05,22,12.70
2015,06,22,05,23,12.70
2015,06,22,05,24,12.70
2015,06,22,05,25,12.70
2015,06,22,05,26,12.70
2015,06,22,05,27,12.60
2015,06,22,05,28,12.60
2015,06,22,05,29,12.60
2015,06,22,05,30,12.60
2015,06,22,05,31,12.50
2015,06,22,05,32,12.50
2015,06,22,05,33,12.50
2015,06,22,05,34,12.40
2015,06,22,05,35,12.40
2015,06,22,05,36,12.40
2015,06,22,05,37,12.40
2015,06,22,05,38,12.30
2015,06,22,05,39,12.30
2015,06,22,05,40,12.30
2015,06,22,05,41,12.30
2015,06,22,05,42,12.30
2015,06,22,05,43,12.30
2015,06,22,05,44,12.30
2015,06,22,05,45,12.30
2015,06,22,05,46,12.30
2015,06,22,05,47,12.30
2015,06,22,05,48,12.30
2015,06,22,05,49,12.30
2015,06,22,05,50,12.30
2015,06,22,05,51,12.20
2015,06,22,05,52,12.20
2015,06,22,05,53,12.20
2015,06,22,05,54,12.20
2015,06,22,05,55,12.20
2015,06,22,05,56,12.20
2015,06,22,05,57,12.20
2015,06,22,05,58,12.20
2015,06,22,05,59,12.20
2015,06,22,06,00,12.20
2015,06,22,06,01,12.20
2015,06,22,06,02,12.20
2015,06,22,06,03,12.20
2015,06,22,06,04,12.20
2015,06,22,06,05,12.20
2015,06,22,06,06,12.20
2015,06,22,06,07,12.20
2015,06,22,06,08,12.20
2015,06,22,06,09,12.20
2015,06,22,06,10,12.20
2015,06,22,06,11,12.20
2015,06,22,06,12,12.20
2015,06,22,06,13,12.20
2015,06,22,06,14,12.20
2015,06,22,06,15,12.20
2015,06,22,06,16,12.20
2015,06,22,06,17,12.20
2015,06,22,06,18,12.20
2015,06,22,06,19,12.20
2015,06,22,06,20,12.20
2015,06,22,06,21,12.30
2015,06,22,06,22,12.30
2015,06,22,06,23,12.30
2015,06,22,06,24,12.30
2015,06,22,06,25,12.40
2015,06,22,06,26,12.40
2015,06,22,06,27,12.40
2015,06,22,06,28,12.50
2015,06,22,06,29,12.50
2015,06,22,06,30,12.60
2015,06,22,06,31,12.60
2015,06,22,06,32,12.60
2015,06,22,06,33,12.70
2015,06,22,06,34,12.70
2015,06,22,06,35,12.70
2015,06,22,06,36,12.70
2015,06,22,06,37,12.70
2015,06,22,06,38,12.70
2015,06,22,06,39,12.70
2015,06,22,06,40,12.70
2015,06,22,06,41,12.70
2015,06,22,06,42,12.70
2015,06,22,06,43,12.70
2015,06,22,06,44,12.70
2015,06,22,06,45,12.70
2015,06,22,06,46,12.70
2015,06,22,06,47,12.70
2015,06,22,06,48,12.70
2015,06,22,06,49,12.70
2015,06,22,06,50,12.70
2015,06,22,06,51,12.70
2015,06,22,06,52,12.70
2015,06,22,06,53,12.70
2015,06,22,06,54,12.70
2015,06,22,06,55,12.70
2015,06,22,06,56,12.70
2015,06,22,06,57,12.70
2015,06,22,06,58,12.80
2015,06,22,06,59,12.80
2015,06,22,07,00,12.80
2015,06,22,07,01,12.80
2015,06,22,07,02,12.80
2015,06,22,07,03,12.80
2015,06,22,07,04,12.90
2015,06,22,07,05,12.90
2015,06,22,07,06,12.90
2015,06,22,07,07,12.90
2015,06,22,07,08,13.00
2015,06,22,07,09,13.00
2015,06,22,07,10,13.10
2015,06,22,07,11,13.10
2015,06,22,07,12,13.10
2015,06,22,07,13,13.10
2015,06,22,07,14,13.20
2015,06,22,07,15,13.20
2015,06,22,07,16,13.20
2015,06,22,07,17,13.30
2015,06,22,07,18,13.30
2015,06,22,07,19,13.30
2015,06,22,07,20,13.40
2015,06,22,07,21,13.40
2015,06,22,07,22,13.40
2015,06,22,07,23,13.50
2015,06,22,07,24,13.50
2015,06,22,07,25,13.60
2015,06,22,07,26,13.60
2015,06,22,07,27,13.70
2015,06,22,07,28,13.70
2015,06,22,07,29,13.80
2015,06,22,07,30,13.80
2015,06,22,07,31,13.90
2015,06,22,07,32,13.90
2015,06,22,07,33,14.00
2015,06,22,07,34,14.10
2015,06,22,07,35,14.20
2015,06,22,07,36,14.30
2015,06,22,07,37,14.50
2015,06,22,07,38,14.70
2015,06,22,07,39,14.80
2015,06,22,07,40,14.80
2015,06,22,07,41,14.90
2015,06,22,07,42,14.90
2015,06,22,07,43,15.00
2015,06,22,07,44,15.10
2015,06,22,07,45,15.20
2015,06,22,07,46,15.20
2015,06,22,07,47,15.30
2015,06,22,07,48,15.40
2015,06,22,07,49,15.50
2015,06,22,07,50,15.50
2015,06,22,07,51,15.60
2015,06,22,07,52,15.70
2015,06,22,07,53,15.70
2015,06,22,07,54,15.80
2015,06,22,07,55,15.80
2015,06,22,07,56,15.80
2015,06,22,07,57,15.80
2015,06,22,07,58,15.80
2015,06,22,07,59,15.90
2015,06,22,08,00,15.90
2015,06,22,08,01,15.90
2015,06,22,08,02,16.00
2015,06,22,08,03,16.10
2015,06,22,08,04,16.10
2015,06,22,08,05,16.20
2015,06,22,08,06,16.30
2015,06,22,08,07,16.40
2015,06,22,08,08,16.50
2015,06,22,08,09,16.60
2015,06,22,08,10,16.60
2015,06,22,08,11,16.60
2015,06,22,08,12,16.50
2015,06,22,08,13,16.40
2015,06,22,08,14,16.30
2015,06,22,08,15,16.30
2015,06,22,08,16,16.30
2015,06,22,08,17,16.30
2015,06,22,08,18,16.40
2015,06,22,08,19,16.50
2015,06,22,08,20,16.60
2015,06,22,08,21,16.70
2015,06,22,08,22,16.70
2015,06,22,08,23,16.70
2015,06,22,08,24,16.60
2015,06,22,08,25,16.60
2015,06,22,08,26,16.60
2015,06,22,08,27,16.60
2015,06,22,08,28,16.60
2015,06,22,08,29,16.70
2015,06,22,08,30,16.70
2015,06,22,08,31,16.80
2015,06,22,08,32,17.00
2015,06,22,08,33,17.00
2015,06,22,08,34,17.10
2015,06,22,08,35,17.20
2015,06,22,08,36,17.20
2015,06,22,08,37,17.20
2015,06,22,08,38,17.20
2015,06,22,08,39,17.10
2015,06,22,08,40,17.20
2015,06,22,08,41,17.20
2015,06,22,08,42,17.20
2015,06,22,08,43,17.20
2015,06,22,08,44,17.30
2015,06,22,08,45,17.30
2015,06,22,08,46,17.30
2015,06,22,08,47,17.30
2015,06,22,08,48,17.40
2015,06,22,08,49,17.50
2015,06,22,08,50,17.70
2015,06,22,08,51,17.70
2015,06,22,08,52,17.80
2015,06,22,08,53,17.80
2015,06,22,08,54,17.80
2015,06,22,08,55,17.80
2015,06,22,08,56,17.80
2015,06,22,08,57,17.80
2015,06,22,08,58,17.80
2015,06,22,08,59,17.90
2015,06,22,09,00,17.90
2015,06,22,09,01,18.00
2015,06,22,09,02,18.00
2015,06,22,09,03,18.10
2015,06,22,09,04,18.10
2015,06,22,09,05,18.20
2015,06,22,09,06,18.20
2015,06,22,09,07,18.30
2015,06,22,09,08,18.20
2015,06,22,09,09,18.30
2015,06,22,09,10,18.30
2015,06,22,09,11,18.40
2015,06,22,09,12,18.50
2015,06,22,09,13,18.60
2015,06,22,09,14,18.70
2015,06,22,09,15,18.70
2015,06,22,09,16,18.80
2015,06,22,09,17,18.80
2015,06,22,09,18,18.80
2015,06,22,09,19,18.80
2015,06,22,09,20,18.80
2015,06,22,09,21,18.90
2015,06,22,09,22,18.90
2015,06,22,09,23,18.90
2015,06,22,09,24,18.90
2015,06,22,09,25,18.90
2015,06,22,09,26,18.80
2015,06,22,09,27,18.90
2015,06,22,09,28,18.90
2015,06,22,09,29,18.90
2015,06,22,09,30,18.90
2015,06,22,09,31,18.90
2015,06,22,09,32,19.00
2015,06,22,09,33,19.00
2015,06,22,09,34,18.90
2015,06,22,09,35,18.80
2015,06,22,09,36,18.80
2015,06,22,09,37,18.80
2015,06,22,09,38,18.70
2015,06,22,09,39,18.60
2015,06,22,09,40,18.50
2015,06,22,09,41,18.50
2015,06,22,09,42,18.40
2015,06,22,09,43,18.40
2015,06,22,09,44,18.50
2015,06,22,09,45,18.60
2015,06,22,09,46,18.70
2015,06,22,09,47,18.70
2015,06,22,09,48,18.70
2015,06,22,09,49,18.80
2015,06,22,09,50,18.80
2015,06,22,09,51,18.80
2015,06,22,09,52,18.80
2015,06,22,09,53,18.80
2015,06,22,09,54,18.80
2015,06,22,09,55,18.80
2015,06,22,09,56,18.80
2015,06,22,09,57,18.80
2015,06,22,09,58,18.90
2015,06,22,09,59,19.00
2015,06,22,10,00,18.90
2015,06,22,10,01,18.90
2015,06,22,10,02,18.90
2015,06,22,10,03,18.90
2015,06,22,10,04,18.90
2015,06,22,10,05,18.90
2015,06,22,10,06,18.90
2015,06,22,10,07,18.90
2015,06,22,10,08,18.80
2015,06,22,10,09,18.70
2015,06,22,10,10,18.70
2015,06,22,10,11,18.70
2015,06,22,10,12,18.70
2015,06,22,10,13,18.70
2015,06,22,10,14,18.80
2015,06,22,10,15,18.70
2015,06,22,10,16,18.80
2015,06,22,10,17,18.80
2015,06,22,10,18,18.80
2015,06,22,10,19,18.80
2015,06,22,10,20,18.90
2015,06,22,10,21,18.90
2015,06,22,10,22,18.80
2015,06,22,10,23,18.80
2015,06,22,10,24,18.80
2015,06,22,10,25,18.80
2015,06,22,10,26,18.90
2015,06,22,10,27,18.90
2015,06,22,10,28,19.00
2015,06,22,10,29,19.10
2015,06,22,10,30,19.20
2015,06,22,10,31,19.20
2015,06,22,10,32,19.20
2015,06,22,10,33,19.20
2015,06,22,10,34,19.30
2015,06,22,10,35,19.30
2015,06,22,10,36,19.30
2015,06,22,10,37,19.40
2015,06,22,10,38,19.50
2015,06,22,10,39,19.40
2015,06,22,10,40,19.40
2015,06,22,10,41,19.40
2015,06,22,10,42,19.50
2015,06,22,10,43,19.50
2015,06,22,10,44,19.50
2015,06,22,10,45,19.60
2015,06,22,10,46,19.60
2015,06,22,10,47,19.70
2015,06,22,10,48,19.80
2015,06,22,10,49,19.80
2015,06,22,10,50,19.70
2015,06,22,10,51,19.60
2015,06,22,10,52,19.40
2015,06,22,10,53,19.30
2015,06,22,10,54,19.30
2015,06,22,10,55,19.30
2015,06,22,10,56,19.30
2015,06,22,10,57,19.30
2015,06,22,10,58,19.40
2015,06,22,10,59,19.40
2015,06,22,11,00,19.30
2015,06,22,11,01,19.30
2015,06,22,11,02,19.30
2015,06,22,11,03,19.20
2015,06,22,11,04,19.20
2015,06,22,11,05,19.20
2015,06,22,11,06,19.10
2015,06,22,11,07,19.00
2015,06,22,11,08,18.90
2015,06,22,11,09,18.90
2015,06,22,11,10,18.90
2015,06,22,11,11,18.90
2015,06,22,11,12,18.90
2015,06,22,11,13,18.90
2015,06,22,11,14,19.00
2015,06,22,11,15,19.10
2015,06,22,11,16,19.20
2015,06,22,11,17,19.20
2015,06,22,11,18,19.20
2015,06,22,11,19,19.20
2015,06,22,11,20,19.20
2015,06,22,11,21,19.30
2015,06,22,11,22,19.20
2015,06,22,11,23,19.20
2015,06,22,11,24,19.10
2015,06,22,11,25,19.10
2015,06,22,11,26,19.20
2015,06,22,11,27,19.20
2015,06,22,11,28,19.30
2015,06,22,11,29,19.30
2015,06,22,11,30,19.30
2015,06,22,11,31,19.20
2015,06,22,11,32,19.10
2015,06,22,11,33,18.90
2015,06,22,11,34,18.80
2015,06,22,11,35,18.70
2015,06,22,11,36,18.60
2015,06,22,11,37,18.60
2015,06,22,11,38,18.60
2015,06,22,11,39,18.70
2015,06,22,11,40,18.80
2015,06,22,11,41,18.80
2015,06,22,11,42,18.90
2015,06,22,11,43,19.00
2015,06,22,11,44,19.00
2015,06,22,11,45,18.90
2015,06,22,11,46,18.70
2015,06,22,11,47,18.60
2015,06,22,11,48,18.60
2015,06,22,11,49,18.60
2015,06,22,11,50,18.70
2015,06,22,11,51,18.80
2015,06,22,11,52,18.80
2015,06,22,11,53,18.90
2015,06,22,11,54,19.00
2015,06,22,11,55,19.10
2015,06,22,11,56,19.10
2015,06,22,11,57,19.10
2015,06,22,11,58,19.00
2015,06,22,11,59,18.90
2015,06,22,12,00,18.90
2015,06,22,12,01,18.90
2015,06,22,12,02,18.90
2015,06,22,12,03,18.90
2015,06,22,12,04,18.80
2015,06,22,12,05,18.90
2015,06,22,12,06,18.90
2015,06,22,12,07,18.90
2015,06,22,12,08,18.90
2015,06,22,12,09,19.00
2015,06,22,12,10,19.10
2015,06,22,12,11,19.30
2015,06,22,12,12,19.40
2015,06,22,12,13,19.40
2015,06,22,12,14,19.30
2015,06,22,12,15,19.20
2015,06,22,12,16,19.00
2015,06,22,12,17,19.00
2015,06,22,12,18,18.90
2015,06,22,12,19,18.80
2015,06,22,12,20,18.80
2015,06,22,12,21,18.80
2015,06,22,12,22,18.80
2015,06,22,12,23,18.80
2015,06,22,12,24,19.00
2015,06,22,12,25,19.10
2015,06,22,12,26,19.20
2015,06,22,12,27,19.10
2015,06,22,12,28,19.00
2015,06,22,12,29,19.00
2015,06,22,12,30,19.00
2015,06,22,12,31,18.90
2015,06,22,12,32,18.90
2015,06,22,12,33,18.90
2015,06,22,12,34,18.90
2015,06,22,12,35,18.90
2015,06,22,12,36,18.90
2015,06,22,12,37,18.90
2015,06,22,12,38,18.90
2015,06,22,12,39,18.90
2015,06,22,12,40,18.90
2015,06,22,12,41,18.90
2015,06,22,12,42,19.10
2015,06,22,12,43,19.20
2015,06,22,12,44,19.20
2015,06,22,12,45,19.30
2015,06,22,12,46,19.30
2015,06,22,12,47,19.30
2015,06,22,12,48,19.30
2015,06,22,12,49,19.30
2015,06,22,12,50,19.40
2015,06,22,12,51,19.40
2015,06,22,12,52,19.50
2015,06,22,12,53,19.50
2015,06,22,12,54,19.50
2015,06,22,12,55,19.50
2015,06,22,12,56,19.40
2015,06,22,12,57,19.50
2015,06,22,12,58,19.50
2015,06,22,12,59,19.40
2015,06,22,13,00,19.40
2015,06,22,13,01,19.40
2015,06,22,13,02,19.30
2015,06,22,13,03,19.20
2015,06,22,13,04,19.20
2015,06,22,13,05,19.20
2015,06,22,13,06,19.30
2015,06,22,13,07,19.30
2015,06,22,13,08,19.30
2015,06,22,13,09,19.40
2015,06,22,13,10,19.50
2015,06,22,13,11,19.60
2015,06,22,13,12,19.60
2015,06,22,13,13,19.60
2015,06,22,13,14,19.60
2015,06,22,13,15,19.70
2015,06,22,13,16,19.80
2015,06,22,13,17,19.70
2015,06,22,13,18,19.60
2015,06,22,13,19,19.50
2015,06,22,13,20,19.40
2015,06,22,13,21,19.40
2015,06,22,13,22,19.30
2015,06,22,13,23,19.30
2015,06,22,13,24,19.20
2015,06,22,13,25,19.20
2015,06,22,13,26,19.20
2015,06,22,13,27,19.20
2015,06,22,13,28,19.30
2015,06,22,13,29,19.20
2015,06,22,13,30,19.20
2015,06,22,13,31,19.30
2015,06,22,13,32,19.30
2015,06,22,13,33,19.30
2015,06,22,13,34,19.40
2015,06,22,13,35,19.40
2015,06,22,13,36,19.40
2015,06,22,13,37,19.30
2015,06,22,13,38,19.30
2015,06,22,13,39,19.30
2015,06,22,13,40,19.30
2015,06,22,13,41,19.40
2015,06,22,13,42,19.50
2015,06,22,13,43,19.50
2015,06,22,13,44,19.60
2015,06,22,13,45,19.70
2015,06,22,13,46,19.70
2015,06,22,13,47,19.60
2015,06,22,13,48,19.50
2015,06,22,13,49,19.40
2015,06,22,13,50,19.40
2015,06,22,13,51,19.30
2015,06,22,13,52,19.30
2015,06,22,13,53,19.30
2015,06,22,13,54,19.30
2015,06,22,13,55,19.30
2015,06,22,13,56,19.30
2015,06,22,13,57,19.30
2015,06,22,13,58,19.40
2015,06,22,13,59,19.50
2015,06,22,14,00,19.60
2015,06,22,14,01,19.60
2015,06,22,14,02,19.50
2015,06,22,14,03,19.40
2015,06,22,14,04,19.50
2015,06,22,14,05,19.50
2015,06,22,14,06,19.60
2015,06,22,14,07,19.60
2015,06,22,14,08,19.50
2015,06,22,14,09,19.40
2015,06,22,14,10,19.40
2015,06,22,14,11,19.30
2015,06,22,14,12,19.40
2015,06,22,14,13,19.50
2015,06,22,14,14,19.70
2015,06,22,14,15,19.80
2015,06,22,14,16,20.00
2015,06,22,14,17,20.00
2015,06,22,14,18,20.00
2015,06,22,14,19,20.00
2015,06,22,14,20,20.10
2015,06,22,14,21,20.10
2015,06,22,14,22,20.00
2015,06,22,14,23,19.90
2015,06,22,14,24,19.80
2015,06,22,14,25,19.70
2015,06,22,14,26,19.70
2015,06,22,14,27,19.70
2015,06,22,14,28,19.70
2015,06,22,14,29,19.70
2015,06,22,14,30,19.70
2015,06,22,14,31,19.70
2015,06,22,14,32,19.70
2015,06,22,14,33,19.80
2015,06,22,14,34,19.80
2015,06,22,14,35,19.90
2015,06,22,14,36,19.90
2015,06,22,14,37,19.90
2015,06,22,14,38,20.00
2015,06,22,14,39,19.90
2015,06,22,14,40,19.80
2015,06,22,14,41,19.80
2015,06,22,14,42,19.90
2015,06,22,14,43,19.90
2015,06,22,14,44,19.90
2015,06,22,14,45,19.90
2015,06,22,14,46,19.90
2015,06,22,14,47,20.00
2015,06,22,14,48,20.00
2015,06,22,14,49,20.10
2015,06,22,14,50,20.10
2015,06,22,14,51,20.00
2015,06,22,14,52,20.00
2015,06,22,14,53,20.00
2015,06,22,14,54,20.00
2015,06,22,14,55,20.00
2015,06,22,14,56,20.00
2015,06,22,14,57,20.00
2015,06,22,14,58,20.00
2015,06,22,14,59,20.00
2015,06,22,15,00,19.90
2015,06,22,15,01,19.80
2015,06,22,15,02,19.90
2015,06,22,15,03,20.00
2015,06,22,15,04,20.20
2015,06,22,15,05,20.30
2015,06,22,15,06,20.40
2015,06,22,15,07,20.40
2015,06,22,15,08,20.20
2015,06,22,15,09,20.10
2015,06,22,15,10,20.10
2015,06,22,15,11,20.00
2015,06,22,15,12,19.90
2015,06,22,15,13,19.80
2015,06,22,15,14,19.80
2015,06,22,15,15,19.80
2015,06,22,15,16,19.80
2015,06,22,15,17,19.80
2015,06,22,15,18,19.80
2015,06,22,15,19,19.80
2015,06,22,15,20,19.80
2015,06,22,15,21,20.00
2015,06,22,15,22,20.10
2015,06,22,15,23,20.20
2015,06,22,15,24,20.20
2015,06,22,15,25,20.20
2015,06,22,15,26,20.20
2015,06,22,15,27,20.10
2015,06,22,15,28,19.90
2015,06,22,15,29,19.80
2015,06,22,15,30,19.80
2015,06,22,15,31,19.80
2015,06,22,15,32,19.80
2015,06,22,15,33,19.90
2015,06,22,15,34,20.10
2015,06,22,15,35,20.20
2015,06,22,15,36,20.30
2015,06,22,15,37,20.30
2015,06,22,15,38,20.40
2015,06,22,15,39,20.40
2015,06,22,15,40,20.30
2015,06,22,15,41,20.30
2015,06,22,15,42,20.20
2015,06,22,15,43,20.10
2015,06,22,15,44,20.10
2015,06,22,15,45,20.00
2015,06,22,15,46,19.90
2015,06,22,15,47,19.90
2015,06,22,15,48,19.90
2015,06,22,15,49,20.00
2015,06,22,15,50,20.10
2015,06,22,15,51,20.10
2015,06,22,15,52,20.20
2015,06,22,15,53,20.20
2015,06,22,15,54,20.10
2015,06,22,15,55,20.00
2015,06,22,15,56,19.90
2015,06,22,15,57,19.80
2015,06,22,15,58,19.80
2015,06,22,15,59,19.70
2015,06,22,16,00,19.70
2015,06,22,16,01,19.60
2015,06,22,16,02,19.50
2015,06,22,16,03,19.40
2015,06,22,16,04,19.30
2015,06,22,16,05,19.30
2015,06,22,16,06,19.30
2015,06,22,16,07,19.30
2015,06,22,16,08,19.30
2015,06,22,16,09,19.30
2015,06,22,16,10,19.30
2015,06,22,16,11,19.30
2015,06,22,16,12,19.40
2015,06,22,16,13,19.40
2015,06,22,16,14,19.40
2015,06,22,16,15,19.40
2015,06,22,16,16,19.40
2015,06,22,16,17,19.40
2015,06,22,16,18,19.50
2015,06,22,16,19,19.70
2015,06,22,16,20,19.70
2015,06,22,16,21,19.80
2015,06,22,16,22,19.90
2015,06,22,16,23,20.00
2015,06,22,16,24,20.10
2015,06,22,16,25,20.10
2015,06,22,16,26,20.20
2015,06,22,16,27,20.20
2015,06,22,16,28,20.20
2015,06,22,16,29,20.30
2015,06,22,16,30,20.30
2015,06,22,16,31,20.40
2015,06,22,16,32,20.40
2015,06,22,16,33,20.40
2015,06,22,16,34,20.40
2015,06,22,16,35,20.40
2015,06,22,16,36,20.40
2015,06,22,16,37,20.50
2015,06,22,16,38,20.50
2015,06,22,16,39,20.60
2015,06,22,16,40,20.60
2015,06,22,16,41,20.60
2015,06,22,16,42,20.60
2015,06,22,16,43,20.60
2015,06,22,16,44,20.60
2015,06,22,16,45,20.50
2015,06,22,16,46,20.40
2015,06,22,16,47,20.40
2015,06,22,16,48,20.40
2015,06,22,16,49,20.40
2015,06,22,16,50,20.40
2015,06,22,16,51,20.40
2015,06,22,16,52,20.50
2015,06,22,16,53,20.60
2015,06,22,16,54,20.80
2015,06,22,16,55,20.90
2015,06,22,16,56,20.90
2015,06,22,16,57,20.90
2015,06,22,16,58,20.80
2015,06,22,16,59,20.80
2015,06,22,17,00,20.70
2015,06,22,17,01,20.70
2015,06,22,17,02,20.80
2015,06,22,17,03,20.80
2015,06,22,17,04,20.90
2015,06,22,17,05,20.90
2015,06,22,17,06,20.90
2015,06,22,17,07,20.80
2015,06,22,17,08,20.90
2015,06,22,17,09,20.90
2015,06,22,17,10,21.00
2015,06,22,17,11,21.00
2015,06,22,17,12,21.00
2015,06,22,17,13,21.00
2015,06,22,17,14,21.00
2015,06,22,17,15,21.00
2015,06,22,17,16,21.00
2015,06,22,17,17,20.90
2015,06,22,17,18,20.90
2015,06,22,17,19,20.80
2015,06,22,17,20,20.80
2015,06,22,17,21,20.70
2015,06,22,17,22,20.80
2015,06,22,17,23,20.80
2015,06,22,17,24,21.00
2015,06,22,17,25,21.10
2015,06,22,17,26,21.10
2015,06,22,17,27,21.00
2015,06,22,17,28,21.00
2015,06,22,17,29,21.00
2015,06,22,17,30,21.00
2015,06,22,17,31,21.00
2015,06,22,17,32,21.10
2015,06,22,17,33,21.10
2015,06,22,17,34,21.00
2015,06,22,17,35,21.00
2015,06,22,17,36,21.00
2015,06,22,17,37,21.00
2015,06,22,17,38,21.00
2015,06,22,17,39,21.00
2015,06,22,17,40,21.00
2015,06,22,17,41,21.10
2015,06,22,17,42,21.20
2015,06,22,17,43,21.20
2015,06,22,17,44,21.30
2015,06,22,17,45,21.30
2015,06,22,17,46,21.30
2015,06,22,17,47,21.40
2015,06,22,17,48,21.30
2015,06,22,17,49,21.30
2015,06,22,17,50,21.30
2015,06,22,17,51,21.30
2015,06,22,17,52,21.30
2015,06,22,17,53,21.20
2015,06,22,17,54,21.20
2015,06,22,17,55,21.10
2015,06,22,17,56,21.20
2015,06,22,17,57,21.20
2015,06,22,17,58,21.20
2015,06,22,17,59,21.30
2015,06,22,18,00,21.30
2015,06,22,18,01,21.20
2015,06,22,18,02,21.20
2015,06,22,18,03,21.10
2015,06,22,18,04,21.10
2015,06,22,18,05,21.10
2015,06,22,18,06,21.10
2015,06,22,18,07,21.10
2015,06,22,18,08,21.10
2015,06,22,18,09,21.20
2015,06,22,18,10,21.20
2015,06,22,18,11,21.20
2015,06,22,18,12,21.20
2015,06,22,18,13,21.20
2015,06,22,18,14,21.20
2015,06,22,18,15,21.20
2015,06,22,18,16,21.30
2015,06,22,18,17,21.30